カタログに戻る

STARLINK-3166

運用中通信VLEO
NORAD 51462·PAYLOAD·🇺🇸 United States

打ち上げ Feb 3, 2022 から Cape Canaveral Space Force Station

Loading…

次のパス (今後24時間)

TLE

最新Source: CelesTrak SupGP

元期: Sep 15, 2026, 01:46 UTC

1 51462C 22010G   26258.07409722  .00029886  00000+0  96123-3 0  2581
2 51462  53.1575 134.1577 0001307  83.3884 314.3938 15.31681240    12

AllMySatでSTARLINK-3166をリアルタイム追跡

Download on the App Store